owner,sensor,date,latitude,longitude,vertical_datum,wind_speed,wind_to_direction,wind_speed_of_gust,qcFlag 
TABS,ioos:station:wmo:42044:1,2011-04-01T00:00:00Z,26.1914,-97.0507,0.0,4.894701217,131.6046999,6.47,'11111222,11111222,11111222' 
TABS,ioos:station:wmo:42044:1,2011-04-01T00:30:00Z,26.1914,-97.0507,0.0,4.69180136,125.2824867,6.29,'11111222,11111222,11111222' 
TABS,ioos:station:wmo:42044:1,2011-04-01T01:00:00Z,26.1914,-97.0507,0.0,4.937631011,114.0217636,6.29,'11111222,11111222,11111222' 
TABS,ioos:station:wmo:42044:1,2011-04-01T01:30:00Z,26.1914,-97.0507,0.0,4.858477128,112.7653768,6.42,'11111222,11111222,11111222' 
TABS,ioos:station:wmo:42044:1,2011-04-01T02:00:00Z,26.1914,-97.0507,0.0,5.201941945,117.5998707,6.67,'11111222,11111222,11111222' 
TABS,ioos:station:wmo:42044:1,2011-04-01T02:30:00Z,26.1914,-97.0507,0.0,4.965329798,117.8556343,6.08,'11111222,11111222,11111222' 
TABS,ioos:station:wmo:42044:1,2011-04-01T03:00:00Z,26.1914,-97.0507,0.0,5.201124878,116.3683492,6.45,'11111222,11111222,11111222' 
TABS,ioos:station:wmo:42044:1,2011-04-01T03:30:00Z,26.1914,-97.0507,0.0,4.884280909,120.9238693,6.35,'11111222,11111222,11111222' 
TABS,ioos:station:wmo:42044:1,2011-04-01T04:00:00Z,26.1914,-97.0507,0.0,4.49414063,119.0178084,5.73,'11111222,11111222,11111222' 
TABS,ioos:station:wmo:42044:1,2011-04-01T04:30:00Z,26.1914,-97.0507,0.0,4.803883845,123.1942127,6.0,'11111222,11111222,11111222' 
TABS,ioos:station:wmo:42044:1,2011-04-01T05:00:00Z,26.1914,-97.0507,0.0,5.084191184,119.8430783,6.48,'11111222,11111222,11111222' 
TABS,ioos:station:wmo:42044:1,2011-04-01T05:30:00Z,26.1914,-97.0507,0.0,4.722393461,119.0078196,6.07,'11111222,11111222,11111222' 
TABS,ioos:station:wmo:42044:1,2011-04-01T06:00:00Z,26.1914,-97.0507,0.0,4.78377466,129.146476,6.07,'11111222,11111222,11111222' 
TABS,ioos:station:wmo:42044:1,2011-04-01T06:30:00Z,26.1914,-97.0507,0.0,4.680865305,127.9719359,6.0,'11111222,11111222,11111222' 
TABS,ioos:station:wmo:42044:1,2011-04-01T07:00:00Z,26.1914,-97.0507,0.0,4.921077118,128.8965206,6.73,'11111222,11111222,11111222' 
TABS,ioos:station:wmo:42044:1,2011-04-01T07:30:00Z,26.1914,-97.0507,0.0,4.765899705,135.0003157,6.4,'11111222,11111222,11111222' 
TABS,ioos:station:wmo:42044:1,2011-04-01T08:00:00Z,26.1914,-97.0507,0.0,4.235717177,135.4785654,5.7,'11111222,11111222,11111222' 
TABS,ioos:station:wmo:42044:1,2011-04-01T08:30:00Z,26.1914,-97.0507,0.0,4.241992456,138.1536494,5.29,'11111222,11111222,11111222' 
TABS,ioos:station:wmo:42044:1,2011-04-01T09:00:00Z,26.1914,-97.0507,0.0,4.391639785,141.5646209,5.8,'11111222,11111222,11111222' 
TABS,ioos:station:wmo:42044:1,2011-04-01T09:30:00Z,26.1914,-97.0507,0.0,4.258368232,143.8838916,5.28,'11111222,11111222,11111222' 
TABS,ioos:station:wmo:42044:1,2011-04-01T10:00:00Z,26.1914,-97.0507,0.0,3.917256693,138.415355,5.11,'11111222,11111222,11111222' 
TABS,ioos:station:wmo:42044:1,2011-04-01T10:30:00Z,26.1914,-97.0507,0.0,4.033162531,129.7695207,5.1,'11111222,11111222,11111222' 
TABS,ioos:station:wmo:42044:1,2011-04-01T11:00:00Z,26.1914,-97.0507,0.0,3.829686671,129.3844742,4.83,'11111222,11111222,11111222' 
TABS,ioos:station:wmo:42044:1,2011-04-01T11:30:00Z,26.1914,-97.0507,0.0,4.08050242,134.1066952,5.26,'11111222,11111222,11111222' 
TABS,ioos:station:wmo:42044:1,2011-04-01T12:00:00Z,26.1914,-97.0507,0.0,4.074506105,133.4091791,5.06,'11111222,11111222,11111222' 
TABS,ioos:station:wmo:42044:1,2011-04-01T12:30:00Z,26.1914,-97.0507,0.0,3.94655546,141.068414,5.13,'11111222,11111222,11111222' 
TABS,ioos:station:wmo:42044:1,2011-04-01T13:00:00Z,26.1914,-97.0507,0.0,3.95701908,150.9738018,5.13,'11111222,11111222,11111222' 
TABS,ioos:station:wmo:42044:1,2011-04-01T13:30:00Z,26.1914,-97.0507,0.0,3.708274531,145.8816908,4.69,'11111222,11111222,11111222' 
TABS,ioos:station:wmo:42044:1,2011-04-01T14:00:00Z,26.1914,-97.0507,0.0,3.575611836,147.332456,4.69,'11111222,11111222,11111222' 
TABS,ioos:station:wmo:42044:1,2011-04-01T14:30:00Z,26.1914,-97.0507,0.0,4.068722158,151.0414177,5.1,'11111222,11111222,11111222' 
TABS,ioos:station:wmo:42044:1,2011-04-01T15:00:00Z,26.1914,-97.0507,0.0,4.082364511,157.0781065,5.29,'11111222,11111222,11111222' 
TABS,ioos:station:wmo:42044:1,2011-04-01T15:30:00Z,26.1914,-97.0507,0.0,4.280747598,156.3095765,5.43,'11111222,11111222,11111222' 
TABS,ioos:station:wmo:42044:1,2011-04-01T16:00:00Z,26.1914,-97.0507,0.0,4.611474818,154.4354317,5.78,'11111222,11111222,11111222' 
TABS,ioos:station:wmo:42044:1,2011-04-01T16:30:00Z,26.1914,-97.0507,0.0,4.859650193,158.1331711,6.26,'11111222,11111222,11111222' 
TABS,ioos:station:wmo:42044:1,2011-04-01T17:00:00Z,26.1914,-97.0507,0.0,5.259287024,162.2887832,6.95,'11111222,11111222,11111222' 
TABS,ioos:station:wmo:42044:1,2011-04-01T17:30:00Z,26.1914,-97.0507,0.0,5.052148058,171.0040215,6.57,'11111222,11111222,11111222' 
TABS,ioos:station:wmo:42044:1,2011-04-01T18:00:00Z,26.1914,-97.0507,0.0,4.858075751,166.3072547,6.31,'11111222,11111222,11111222' 
TABS,ioos:station:wmo:42044:1,2011-04-01T18:30:00Z,26.1914,-97.0507,0.0,4.691321775,166.9415452,5.76,'11111222,11111222,11111222' 
TABS,ioos:station:wmo:42044:1,2011-04-01T19:00:00Z,26.1914,-97.0507,0.0,4.936527119,168.0757144,6.28,'11111222,11111222,11111222' 
TABS,ioos:station:wmo:42044:1,2011-04-01T19:30:00Z,26.1914,-97.0507,0.0,5.059644256,161.5653047,6.55,'11111222,11111222,11111222' 
TABS,ioos:station:wmo:42044:1,2011-04-01T20:00:00Z,26.1914,-97.0507,0.0,4.598543248,156.278142,5.77,'11111222,11111222,11111222' 
TABS,ioos:station:wmo:42044:1,2011-04-01T20:30:00Z,26.1914,-97.0507,0.0,5.13280625,156.5818148,6.79,'11111222,11111222,11111222' 
TABS,ioos:station:wmo:42044:1,2011-04-01T21:00:00Z,26.1914,-97.0507,0.0,4.814280839,155.1918792,6.05,'11111222,11111222,11111222' 
TABS,ioos:station:wmo:42044:1,2011-04-01T21:30:00Z,26.1914,-97.0507,0.0,4.712960853,148.5361404,5.74,'11111222,11111222,11111222' 
TABS,ioos:station:wmo:42044:1,2011-04-01T22:00:00Z,26.1914,-97.0507,0.0,4.26568869,146.5709933,5.41,'11111222,11111222,11111222' 
TABS,ioos:station:wmo:42044:1,2011-04-01T22:30:00Z,26.1914,-97.0507,0.0,4.82589888,146.4090072,6.1,'11111222,11111222,11111222' 
TABS,ioos:station:wmo:42044:1,2011-04-01T23:00:00Z,26.1914,-97.0507,0.0,4.441441208,136.0950037,5.45,'11111222,11111222,11111222' 
TABS,ioos:station:wmo:42044:1,2011-04-01T23:30:00Z,26.1914,-97.0507,0.0,4.667247583,134.305857,5.88,'11111222,11111222,11111222' 
TABS,ioos:station:wmo:42044:1,2011-04-02T00:00:00Z,26.1914,-97.0507,0.0,4.886358562,135.5807148,6.16,'11111222,11111222,11111222' 
TABS,ioos:station:wmo:42044:1,2011-04-02T00:30:00Z,26.1914,-97.0507,0.0,5.923048202,144.9686485,7.69,'11111222,11111222,11111222' 
TABS,ioos:station:wmo:42044:1,2011-04-02T01:00:00Z,26.1914,-97.0507,0.0,6.285896913,148.3330681,8.11,'11111222,11111222,11111222' 
TABS,ioos:station:wmo:42044:1,2011-04-02T01:30:00Z,26.1914,-97.0507,0.0,6.12249949,149.0365263,7.92,'11111222,11111222,11111222' 
TABS,ioos:station:wmo:42044:1,2011-04-02T02:00:00Z,26.1914,-97.0507,0.0,5.982482762,151.5503307,8.02,'11111222,11111222,11111222' 
TABS,ioos:station:wmo:42044:1,2011-04-02T02:30:00Z,26.1914,-97.0507,0.0,5.894616188,149.5199521,7.85,'11111222,11111222,11111222' 
TABS,ioos:station:wmo:42044:1,2011-04-02T03:00:00Z,26.1914,-97.0507,0.0,5.649814156,148.166896,6.84,'11111222,11111222,11111222' 
TABS,ioos:station:wmo:42044:1,2011-04-02T03:30:00Z,26.1914,-97.0507,0.0,4.226925597,145.8966776,5.62,'11111222,11111222,11111222' 
TABS,ioos:station:wmo:42044:1,2011-04-02T04:00:00Z,26.1914,-97.0507,0.0,3.975550276,149.6297301,5.22,'11111222,11111222,11111222' 
TABS,ioos:station:wmo:42044:1,2011-04-02T04:30:00Z,26.1914,-97.0507,0.0,2.500119997,154.1526607,3.11,'11111222,11111222,11111222' 
TABS,ioos:station:wmo:42044:1,2011-04-02T05:00:00Z,26.1914,-97.0507,0.0,1.808535319,150.8841323,2.37,'11111222,11111222,11111222' 
TABS,ioos:station:wmo:42044:1,2011-04-02T05:30:00Z,26.1914,-97.0507,0.0,1.84613109,143.8131967,2.35,'11111222,11111222,11111222' 
TABS,ioos:station:wmo:42044:1,2011-04-02T06:00:00Z,26.1914,-97.0507,0.0,3.06804498,145.2224604,3.8,'11111222,11111222,11111222' 
TABS,ioos:station:wmo:42044:1,2011-04-02T06:30:00Z,26.1914,-97.0507,0.0,4.08832484,145.7660461,5.04,'11111222,11111222,11111222' 
TABS,ioos:station:wmo:42044:1,2011-04-02T07:00:00Z,26.1914,-97.0507,0.0,2.679048338,152.6700496,3.94,'11111222,11111222,11111222' 
TABS,ioos:station:wmo:42044:1,2011-04-02T07:30:00Z,26.1914,-97.0507,0.0,3.631762657,137.7902939,5.0,'11111222,11111222,11111222' 
TABS,ioos:station:wmo:42044:1,2011-04-02T08:00:00Z,26.1914,-97.0507,0.0,4.322267923,144.9865527,5.5,'11111222,11111222,11111222' 
TABS,ioos:station:wmo:42044:1,2011-04-02T08:30:00Z,26.1914,-97.0507,0.0,3.926996308,150.5630477,4.82,'11111222,11111222,11111222' 
TABS,ioos:station:wmo:42044:1,2011-04-02T09:00:00Z,26.1914,-97.0507,0.0,4.628995571,144.3187295,5.89,'11111222,11111222,11111222' 
TABS,ioos:station:wmo:42044:1,2011-04-02T09:30:00Z,26.1914,-97.0507,0.0,4.778001674,143.0824328,5.94,'11111222,11111222,11111222' 
TABS,ioos:station:wmo:42044:1,2011-04-02T10:00:00Z,26.1914,-97.0507,0.0,3.686800781,147.5171749,4.79,'11111222,11111222,11111222' 
TABS,ioos:station:wmo:42044:1,2011-04-02T10:30:00Z,26.1914,-97.0507,0.0,3.556248023,143.8070878,4.66,'11111222,11111222,11111222' 
TABS,ioos:station:wmo:42044:1,2011-04-02T11:00:00Z,26.1914,-97.0507,0.0,3.888817301,140.9493236,4.87,'11111222,11111222,11111222' 
TABS,ioos:station:wmo:42044:1,2011-04-02T11:30:00Z,26.1914,-97.0507,0.0,3.977549497,145.5511188,4.81,'11111222,11111222,11111222' 
TABS,ioos:station:wmo:42044:1,2011-04-02T12:00:00Z,26.1914,-97.0507,0.0,4.348241024,140.5996419,5.85,'11111222,11111222,11111222' 
TABS,ioos:station:wmo:42044:1,2011-04-02T12:30:00Z,26.1914,-97.0507,0.0,4.970191143,145.9904949,6.16,'11111222,11111222,11111222' 
TABS,ioos:station:wmo:42044:1,2011-04-02T13:00:00Z,26.1914,-97.0507,0.0,4.776044388,138.7353843,5.88,'11111222,11111222,11111222' 
TABS,ioos:station:wmo:42044:1,2011-04-02T13:30:00Z,26.1914,-97.0507,0.0,4.400045454,133.342705,5.41,'11111222,11111222,11111222' 
TABS,ioos:station:wmo:42044:1,2011-04-02T14:00:00Z,26.1914,-97.0507,0.0,4.384119068,129.3541027,5.45,'11111222,11111222,11111222' 
TABS,ioos:station:wmo:42044:1,2011-04-02T14:30:00Z,26.1914,-97.0507,0.0,4.28298961,124.729336,5.14,'11111222,11111222,11111222' 
TABS,ioos:station:wmo:42044:1,2011-04-02T15:00:00Z,26.1914,-97.0507,0.0,3.595803109,119.4883032,4.42,'11111222,11111222,11111222' 
TABS,ioos:station:wmo:42044:1,2011-04-02T15:30:00Z,26.1914,-97.0507,0.0,3.519232871,120.5732051,4.73,'11111222,11111222,11111222' 
TABS,ioos:station:wmo:42044:1,2011-04-02T16:00:00Z,26.1914,-97.0507,0.0,3.214591731,113.854271,3.82,'11111222,11111222,11111222' 
TABS,ioos:station:wmo:42044:1,2011-04-02T16:30:00Z,26.1914,-97.0507,0.0,2.850438563,105.2555039,3.49,'11111222,11111222,11111222' 
TABS,ioos:station:wmo:42044:1,2011-04-02T17:00:00Z,26.1914,-97.0507,0.0,3.286883022,111.4133403,3.99,'11111222,11111222,11111222' 
TABS,ioos:station:wmo:42044:1,2011-04-02T17:30:00Z,26.1914,-97.0507,0.0,3.69545667,112.262438,4.53,'11111222,11111222,11111222' 
TABS,ioos:station:wmo:42044:1,2011-04-02T18:00:00Z,26.1914,-97.0507,0.0,4.365913421,117.8566915,5.16,'11111222,11111222,11111222' 
TABS,ioos:station:wmo:42044:1,2011-04-02T18:30:00Z,26.1914,-97.0507,0.0,4.277242102,120.6424809,5.27,'11111222,11111222,11111222' 
TABS,ioos:station:wmo:42044:1,2011-04-02T19:00:00Z,26.1914,-97.0507,0.0,4.1966296,120.6597175,5.04,'11111222,11111222,11111222' 
TABS,ioos:station:wmo:42044:1,2011-04-02T19:30:00Z,26.1914,-97.0507,0.0,4.375945612,118.3809218,5.16,'11111222,11111222,11111222' 
TABS,ioos:station:wmo:42044:1,2011-04-02T20:00:00Z,26.1914,-97.0507,0.0,4.271545388,112.7234125,5.45,'11111222,11111222,11111222' 
TABS,ioos:station:wmo:42044:1,2011-04-02T20:30:00Z,26.1914,-97.0507,0.0,4.6222289,111.1802761,5.85,'11111222,11111222,11111222' 
TABS,ioos:station:wmo:42044:1,2011-04-02T21:00:00Z,26.1914,-97.0507,0.0,4.965329798,115.2751856,6.28,'11111222,11111222,11111222' 
TABS,ioos:station:wmo:42044:1,2011-04-02T21:30:00Z,26.1914,-97.0507,0.0,4.678471973,109.8683873,5.87,'11111222,11111222,11111222' 
TABS,ioos:station:wmo:42044:1,2011-04-02T22:00:00Z,26.1914,-97.0507,0.0,5.036476943,111.0623855,6.35,'11111222,11111222,11111222' 
TABS,ioos:station:wmo:42044:1,2011-04-02T22:30:00Z,26.1914,-97.0507,0.0,4.810665235,105.3077333,6.27,'11111222,11111222,11111222' 
TABS,ioos:station:wmo:42044:1,2011-04-02T23:00:00Z,26.1914,-97.0507,0.0,5.115310352,105.8842375,6.57,'11111222,11111222,11111222' 
TABS,ioos:station:wmo:42044:1,2011-04-02T23:30:00Z,26.1914,-97.0507,0.0,5.654325778,108.8839411,7.15,'11111222,11111222,11111222' 
TABS,ioos:station:wmo:42044:1,2011-04-03T00:00:00Z,26.1914,-97.0507,0.0,5.564207041,110.8456658,7.25,'11111222,11111222,11111222' 
TABS,ioos:station:wmo:42044:1,2011-04-03T00:30:00Z,26.1914,-97.0507,0.0,5.353849083,108.0630625,6.86,'11111222,11111222,11111222' 
TABS,ioos:station:wmo:42044:1,2011-04-03T01:00:00Z,26.1914,-97.0507,0.0,5.714017851,110.2747539,7.22,'11111222,11111222,11111222' 
TABS,ioos:station:wmo:42044:1,2011-04-03T01:30:00Z,26.1914,-97.0507,0.0,5.698350639,115.5761016,7.38,'11111222,11111222,11111222' 
TABS,ioos:station:wmo:42044:1,2011-04-03T02:00:00Z,26.1914,-97.0507,0.0,5.098284025,118.9785484,6.65,'11111222,11111222,11111222' 
TABS,ioos:station:wmo:42044:1,2011-04-03T02:30:00Z,26.1914,-97.0507,0.0,5.398342338,115.805943,6.99,'11111222,11111222,11111222' 
TABS,ioos:station:wmo:42044:1,2011-04-03T03:00:00Z,26.1914,-97.0507,0.0,4.879395454,124.7326259,6.16,'11111222,11111222,11111222' 
TABS,ioos:station:wmo:42044:1,2011-04-03T03:30:00Z,26.1914,-97.0507,0.0,4.87954916,135.8306292,6.39,'11111222,11111222,11111222' 
TABS,ioos:station:wmo:42044:1,2011-04-03T04:00:00Z,26.1914,-97.0507,0.0,4.627094121,136.9269656,5.68,'11111222,11111222,11111222' 
TABS,ioos:station:wmo:42044:1,2011-04-03T04:30:00Z,26.1914,-97.0507,0.0,5.056006329,143.0397414,6.14,'11111222,11111222,11111222' 
TABS,ioos:station:wmo:42044:1,2011-04-03T05:00:00Z,26.1914,-97.0507,0.0,4.982569618,144.97059,6.5,'11111222,11111222,11111222' 
TABS,ioos:station:wmo:42044:1,2011-04-03T05:30:00Z,26.1914,-97.0507,0.0,4.485376238,145.3536115,5.5,'11111222,11111222,11111222' 
TABS,ioos:station:wmo:42044:1,2011-04-03T06:00:00Z,26.1914,-97.0507,0.0,5.538023113,143.2959331,6.91,'11111222,11111222,11111222' 
TABS,ioos:station:wmo:42044:1,2011-04-03T06:30:00Z,26.1914,-97.0507,0.0,5.586626889,147.277385,7.06,'11111222,11111222,11111222' 
TABS,ioos:station:wmo:42044:1,2011-04-03T07:00:00Z,26.1914,-97.0507,0.0,5.822001374,143.1697639,7.34,'11111222,11111222,11111222' 
TABS,ioos:station:wmo:42044:1,2011-04-03T07:30:00Z,26.1914,-97.0507,0.0,5.244473281,139.8730074,6.51,'11111222,11111222,11111222' 
TABS,ioos:station:wmo:42044:1,2011-04-03T08:00:00Z,26.1914,-97.0507,0.0,4.790260953,145.5472096,5.98,'11111222,11111222,11111222' 
TABS,ioos:station:wmo:42044:1,2011-04-03T08:30:00Z,26.1914,-97.0507,0.0,4.371727347,147.3280576,5.52,'11111222,11111222,11111222' 
TABS,ioos:station:wmo:42044:1,2011-04-03T09:00:00Z,26.1914,-97.0507,0.0,4.116017493,149.3230022,5.3,'11111222,11111222,11111222' 
TABS,ioos:station:wmo:42044:1,2011-04-03T09:30:00Z,26.1914,-97.0507,0.0,2.574975728,139.5679528,3.26,'11111222,11111222,11111222' 
TABS,ioos:station:wmo:42044:1,2011-04-03T10:00:00Z,26.1914,-97.0507,0.0,3.645394355,150.4113579,4.6,'11111222,11111222,11111222' 
TABS,ioos:station:wmo:42044:1,2011-04-03T10:30:00Z,26.1914,-97.0507,0.0,3.869082579,149.3920799,4.91,'11111222,11111222,11111222' 
TABS,ioos:station:wmo:42044:1,2011-04-03T11:00:00Z,26.1914,-97.0507,0.0,3.342005386,155.0455182,4.13,'11111222,11111222,11111222' 
TABS,ioos:station:wmo:42044:1,2011-04-03T11:30:00Z,26.1914,-97.0507,0.0,3.638158875,142.5949413,4.83,'11111222,11111222,11111222' 
TABS,ioos:station:wmo:42044:1,2011-04-03T12:00:00Z,26.1914,-97.0507,0.0,3.962549684,142.1760419,4.95,'11111222,11111222,11111222' 
TABS,ioos:station:wmo:42044:1,2011-04-03T12:30:00Z,26.1914,-97.0507,0.0,4.494941601,141.9576213,5.6,'11111222,11111222,11111222' 
TABS,ioos:station:wmo:42044:1,2011-04-03T13:00:00Z,26.1914,-97.0507,0.0,4.690938072,145.1583651,5.66,'11111222,11111222,11111222' 
TABS,ioos:station:wmo:42044:1,2011-04-03T13:30:00Z,26.1914,-97.0507,0.0,5.641276451,141.9115266,6.92,'11111222,11111222,11111222' 
TABS,ioos:station:wmo:42044:1,2011-04-03T14:00:00Z,26.1914,-97.0507,0.0,5.380148697,142.7044169,6.56,'11111222,11111222,11111222' 
TABS,ioos:station:wmo:42044:1,2011-04-03T14:30:00Z,26.1914,-97.0507,0.0,5.761084967,145.5378669,7.1,'11111222,11111222,11111222' 
TABS,ioos:station:wmo:42044:1,2011-04-03T15:00:00Z,26.1914,-97.0507,0.0,6.852919086,147.8176539,9.25,'11111222,11111222,11111222' 
TABS,ioos:station:wmo:42044:1,2011-04-03T15:30:00Z,26.1914,-97.0507,0.0,7.790924207,152.8103224,9.58,'11111222,11111222,11111222' 
TABS,ioos:station:wmo:42044:1,2011-04-03T16:00:00Z,26.1914,-97.0507,0.0,2.600480725,164.8417473,4.65,'11111222,11111222,11111222' 
TABS,ioos:station:wmo:42044:1,2011-04-03T16:30:00Z,26.1914,-97.0507,0.0,1.970177657,174.1738821,3.47,'11111222,11111222,11111222' 
TABS,ioos:station:wmo:42044:1,2011-04-03T17:00:00Z,26.1914,-97.0507,0.0,2.419607406,162.6886048,3.66,'11111222,11111222,11111222' 
TABS,ioos:station:wmo:42044:1,2011-04-03T17:30:00Z,26.1914,-97.0507,0.0,2.662048084,164.0844162,3.52,'11111222,11111222,11111222' 
TABS,ioos:station:wmo:42044:1,2011-04-03T18:00:00Z,26.1914,-97.0507,0.0,2.615358484,162.1888119,3.63,'11111222,11111222,11111222' 
TABS,ioos:station:wmo:42044:1,2011-04-03T18:30:00Z,26.1914,-97.0507,0.0,3.792255266,158.9844433,4.87,'11111222,11111222,11111222' 
TABS,ioos:station:wmo:42044:1,2011-04-03T19:00:00Z,26.1914,-97.0507,0.0,4.748526087,159.9243726,6.06,'11111222,11111222,11111222' 
TABS,ioos:station:wmo:42044:1,2011-04-03T19:30:00Z,26.1914,-97.0507,0.0,5.094801272,159.431051,6.53,'11111222,11111222,11111222' 
TABS,ioos:station:wmo:42044:1,2011-04-03T20:00:00Z,26.1914,-97.0507,0.0,4.472605505,156.1288261,5.79,'11111222,11111222,11111222' 
TABS,ioos:station:wmo:42044:1,2011-04-03T20:30:00Z,26.1914,-97.0507,0.0,6.86534777,150.4106711,8.92,'11111222,11111222,11111222' 
TABS,ioos:station:wmo:42044:1,2011-04-03T21:00:00Z,26.1914,-97.0507,0.0,7.170390505,149.2146753,9.2,'11111222,11111222,11111222' 
TABS,ioos:station:wmo:42044:1,2011-04-03T21:30:00Z,26.1914,-97.0507,0.0,7.78543512,146.7388594,9.85,'11111222,11111222,11111222' 
TABS,ioos:station:wmo:42044:1,2011-04-03T22:00:00Z,26.1914,-97.0507,0.0,7.341552969,147.9121767,9.31,'11111222,11111222,11111222' 
TABS,ioos:station:wmo:42044:1,2011-04-03T22:30:00Z,26.1914,-97.0507,0.0,7.591706001,148.0269019,9.47,'11111222,11111222,11111222' 
TABS,ioos:station:wmo:42044:1,2011-04-03T23:00:00Z,26.1914,-97.0507,0.0,7.112945944,142.1959635,8.53,'11111222,11111222,11111222' 
TABS,ioos:station:wmo:42044:1,2011-04-03T23:30:00Z,26.1914,-97.0507,0.0,7.358213098,143.5664542,9.35,'11111222,11111222,11111222' 
TABS,ioos:station:wmo:42044:1,2011-04-04T00:00:00Z,26.1914,-97.0507,0.0,7.190417234,145.1388305,8.95,'11111222,11111222,11111222' 
TABS,ioos:station:wmo:42044:1,2011-04-04T00:30:00Z,26.1914,-97.0507,0.0,6.981697501,145.4452757,8.77,'11111222,11111222,11111222' 
TABS,ioos:station:wmo:42044:1,2011-04-04T01:00:00Z,26.1914,-97.0507,0.0,7.308385595,145.8753485,9.32,'11111222,11111222,11111222' 
TABS,ioos:station:wmo:42044:1,2011-04-04T01:30:00Z,26.1914,-97.0507,0.0,7.24033839,141.6741779,9.1,'11111222,11111222,11111222' 
TABS,ioos:station:wmo:42044:1,2011-04-04T02:00:00Z,26.1914,-97.0507,0.0,7.347006193,146.2669634,9.3,'11111222,11111222,11111222' 
TABS,ioos:station:wmo:42044:1,2011-04-04T02:30:00Z,26.1914,-97.0507,0.0,7.647515937,147.2245469,9.94,'11111222,11111222,11111222' 
TABS,ioos:station:wmo:42044:1,2011-04-04T03:00:00Z,26.1914,-97.0507,0.0,8.435786863,151.3085089,10.8,'11111222,11111222,11111222' 
TABS,ioos:station:wmo:42044:1,2011-04-04T03:30:00Z,26.1914,-97.0507,0.0,8.070588578,151.9110849,10.35,'11111222,11111222,11111222' 
TABS,ioos:station:wmo:42044:1,2011-04-04T04:00:00Z,26.1914,-97.0507,0.0,7.18902636,162.5986821,9.92,'11111222,11111222,11111222' 
TABS,ioos:station:wmo:42044:1,2011-04-04T04:30:00Z,26.1914,-97.0507,0.0,8.136811415,162.032923,10.57,'11111222,11111222,11111222' 
TABS,ioos:station:wmo:42044:1,2011-04-04T05:00:00Z,26.1914,-97.0507,0.0,7.754069899,161.1914396,10.14,'11111222,11111222,11111222' 
TABS,ioos:station:wmo:42044:1,2011-04-04T05:30:00Z,26.1914,-97.0507,0.0,7.655070215,166.708293,9.49,'11111222,11111222,11111222' 
TABS,ioos:station:wmo:42044:1,2011-04-04T06:00:00Z,26.1914,-97.0507,0.0,8.108544876,164.4042704,9.78,'11111222,11111222,11111222' 
TABS,ioos:station:wmo:42044:1,2011-04-04T06:30:00Z,26.1914,-97.0507,0.0,7.862932023,167.9614642,9.71,'11111222,11111222,11111222' 
TABS,ioos:station:wmo:42044:1,2011-04-04T07:00:00Z,26.1914,-97.0507,0.0,7.552463174,168.8539633,9.37,'11111222,11111222,11111222' 
TABS,ioos:station:wmo:42044:1,2011-04-04T07:30:00Z,26.1914,-97.0507,0.0,7.862296102,168.7045962,9.75,'11111222,11111222,11111222' 
TABS,ioos:station:wmo:42044:1,2011-04-04T08:00:00Z,26.1914,-97.0507,0.0,7.480989239,169.6816876,9.19,'11111222,11111222,11111222' 
TABS,ioos:station:wmo:42044:1,2011-04-04T08:30:00Z,26.1914,-97.0507,0.0,7.652777274,166.7811565,9.64,'11111222,11111222,11111222' 
TABS,ioos:station:wmo:42044:1,2011-04-04T09:00:00Z,26.1914,-97.0507,0.0,8.277106983,167.1560877,9.98,'11111222,11111222,11111222' 
TABS,ioos:station:wmo:42044:1,2011-04-04T09:30:00Z,26.1914,-97.0507,0.0,8.318557567,164.0926957,11.12,'11111222,11111222,11111222' 
TABS,ioos:station:wmo:42044:1,2011-04-04T10:00:00Z,26.1914,-97.0507,0.0,7.788517189,165.1967729,10.13,'11111222,11111222,11111222' 
TABS,ioos:station:wmo:42044:1,2011-04-04T10:30:00Z,26.1914,-97.0507,0.0,8.285022631,166.0310907,10.44,'11111222,11111222,11111222' 
TABS,ioos:station:wmo:42044:1,2011-04-04T11:00:00Z,26.1914,-97.0507,0.0,7.2836392,165.448868,9.09,'11111222,11111222,11111222' 
TABS,ioos:station:wmo:42044:1,2011-04-04T11:30:00Z,26.1914,-97.0507,0.0,7.530106241,160.7712538,10.09,'11111222,11111222,11111222' 
TABS,ioos:station:wmo:42044:1,2011-04-04T12:00:00Z,26.1914,-97.0507,0.0,7.590948557,156.4746139,9.51,'11111222,11111222,11111222' 
TABS,ioos:station:wmo:42044:1,2011-04-04T12:30:00Z,26.1914,-97.0507,0.0,8.536252105,155.0563635,10.92,'11111222,11111222,11111222' 
TABS,ioos:station:wmo:42044:1,2011-04-04T13:00:00Z,26.1914,-97.0507,0.0,8.441137364,159.7619896,10.86,'11111222,11111222,11111222' 
TABS,ioos:station:wmo:42044:1,2011-04-04T13:30:00Z,26.1914,-97.0507,0.0,8.598238192,161.6285217,11.4,'11111222,11111222,11111222' 
TABS,ioos:station:wmo:42044:1,2011-04-04T14:00:00Z,26.1914,-97.0507,0.0,8.614882472,162.3645314,11.14,'11111222,11111222,11111222' 
TABS,ioos:station:wmo:42044:1,2011-04-04T14:30:00Z,26.1914,-97.0507,0.0,8.256809311,163.8260899,10.68,'11111222,11111222,11111222' 
TABS,ioos:station:wmo:42044:1,2011-04-04T15:00:00Z,26.1914,-97.0507,0.0,7.642316403,165.8367168,9.76,'11111222,11111222,11111222' 
TABS,ioos:station:wmo:42044:1,2011-04-04T15:30:00Z,26.1914,-97.0507,0.0,7.040071022,174.7026381,8.71,'11111222,11111222,11111222' 
TABS,ioos:station:wmo:42044:1,2011-04-04T16:00:00Z,26.1914,-97.0507,0.0,7.050177303,180.4065557,8.67,'11111222,11111222,11111222' 
TABS,ioos:station:wmo:42044:1,2011-04-04T16:30:00Z,26.1914,-97.0507,0.0,6.488959855,173.7185383,7.77,'11111222,11111222,11111222' 
TABS,ioos:station:wmo:42044:1,2011-04-04T17:00:00Z,26.1914,-97.0507,0.0,6.343476965,178.1030988,7.99,'11111222,11111222,11111222' 
TABS,ioos:station:wmo:42044:1,2011-04-04T17:30:00Z,26.1914,-97.0507,0.0,5.761327972,185.9779701,7.29,'11111222,11111222,11111222' 
TABS,ioos:station:wmo:42044:1,2011-04-04T18:00:00Z,26.1914,-97.0507,0.0,6.080074013,180.2829169,7.56,'11111222,11111222,11111222' 
TABS,ioos:station:wmo:42044:1,2011-04-04T18:30:00Z,26.1914,-97.0507,0.0,6.748518356,173.8756764,8.43,'11111222,11111222,11111222' 